FW5469 Weather Reports


time (UTC)temp
C
wind
direction
speed
KPH
gust
KPH
rain 1hr
cm
rain 24hr
cm
rain mn
cm
humidity
%
barometer
mb
20260510120057 8 348 1.6 11.3 0.00 1.02 0.00 76 1014.1
20260510114557 8 51 3.2 14.5 0.00 1.02 0.00 76 1013.7
20260510113056 8 84 1.6 12.9 0.00 1.02 0.00 80 1013.4
20260510111556 8 0 3.2 9.7 0.00 1.02 0.00 82 1013.0
20260510110055 8 347 0.0 4.8 0.00 1.02 0.00 85 1012.8
20260510104556 8 0 0.0 4.8 0.00 1.02 0.00 85 1012.2
20260510103108 8 0 0.0 4.8 0.00 1.02 0.00 85 1011.9
20260510101607 8 41 0.0 3.2 0.00 1.02 0.00 85 1011.7
20260510100104 8 15 0.0 6.4 0.00 1.02 0.00 84 1011.5
20260510094557 8 333 0.0 4.8 0.00 1.02 0.00 85 1011.4
20260510093056 8 0 0.0 3.2 0.00 1.02 0.00 89 1011.2
20260510091558 8 0 0.0 0.0 0.00 1.02 0.00 89 1010.8
20260510090056 8 0 0.0 0.0 0.00 1.02 0.00 88 1010.6
20260510084558 8 0 0.0 0.0 0.00 1.02 0.00 87 1010.3
20260510083055 8 0 0.0 0.0 0.00 1.02 0.00 86 1010.3
20260510081601 8 0 0.0 0.0 0.00 1.02 0.00 85 1010.1
20260510080056 8 0 0.0 0.0 0.00 1.02 0.00 83 1009.9
20260510074600 9 0 0.0 1.6 0.00 1.02 0.00 81 1009.4
20260510073110 10 0 0.0 3.2 0.00 1.02 0.00 79 1009.4
20260510071558 10 0 1.6 4.8 0.00 1.02 0.00 78 1009.2
20260510070059 11 0 0.0 6.4 0.00 1.02 0.00 78 1009.1
20260510064559 11 0 1.6 6.4 0.00 1.02 0.00 78 1008.6
20260510063058 11 0 1.6 12.9 0.00 1.02 0.00 81 1008.5
20260510061603 11 336 3.2 14.5 0.00 1.02 0.00 82 1008.6
20260510060055 11 75 4.8 16.1 0.00 1.02 0.00 83 1008.4
20260510054601 12 81 6.4 16.1 0.00 1.02 0.00 88 1008.0
20260510053059 12 0 0.0 0.0 0.00 1.02 0.00 88 1007.8
20260510051554 13 0 3.2 9.7 0.00 1.02 0.00 87 1007.7
20260510050056 12 290 0.0 4.8 0.00 1.02 0.00 87 1007.3
20260510044555 13 342 3.2 6.4 0.00 1.02 0.00 87 1006.9
20260510043057 13 274 1.6 4.8 0.05 1.02 0.00 86 1006.3
20260510041627 12 233 1.6 4.8 0.08 1.02 0.00 87 1006.2
20260510040056 13 0 0.0 8.0 0.10 1.02 0.00 87 1005.9
20260510034602 13 0 1.6 16.1 0.10 1.02 1.02 86 1006.0
20260510033121 13 176 3.2 12.9 0.05 0.97 0.97 87 1005.9
20260510031602 13 210 3.2 6.4 0.03 0.94 0.94 87 1006.1
20260510030100 13 206 3.2 8.0 0.00 0.91 0.91 86 1006.1
20260510024612 12 238 1.6 3.2 0.00 0.94 0.91 88 1006.0
20260510023107 13 229 1.6 14.5 0.00 0.94 0.91 88 1005.7
20260510021559 12 263 3.2 9.7 0.00 0.94 0.91 92 1006.6
20260510020058 12 0 0.0 1.6 0.00 0.94 0.91 92 1005.7
20260510014616 12 0 0.0 0.0 0.00 0.94 0.91 92 1005.7
20260510013105 12 0 0.0 0.0 0.00 0.94 0.91 92 1005.5
20260510011602 12 0 0.0 0.0 0.00 0.94 0.91 91 1005.4
20260510010055 12 0 0.0 0.0 0.00 0.94 0.91 91 1005.3
20260510004603 12 0 0.0 1.6 0.00 1.02 0.91 90 1005.2
20260510003057 13 0 0.0 3.2 0.00 1.02 0.91 89 1005.2
20260510001558 13 236 1.6 8.0 0.05 1.02 0.91 88 1005.3
20260510000058 13 252 0.0 6.4 0.36 1.02 0.91 88 1005.2
20260509234556 13 217 0.0 6.4 0.79 1.17 0.91 90 1005.1
20260509233057 13 255 0.0 8.0 0.91 1.17 0.91 91 1005.3
20260509231608 13 160 1.6 22.5 0.86 1.12 0.86 90 1005.3
20260509230057 13 289 6.4 22.5 0.56 0.81 0.56 89 1005.5
20260509224558 15 302 12.9 27.4 0.13 0.51 0.13 81 1004.5
20260509223056 20 162 4.8 14.5 0.00 0.38 0.00 55 1003.0
20260509221558 21 202 4.8 19.3 0.00 0.38 0.00 55 1002.4
20260509220058 21 229 4.8 24.1 0.00 0.38 0.00 54 1002.7
20260509214555 21 207 8.0 27.4 0.00 0.43 0.00 54 1002.5
20260509213056 22 172 8.0 29.0 0.00 0.43 0.00 55 1002.3
20260509211601 22 240 6.4 22.5 0.00 0.43 0.00 55 1002.5
20260509210109 22 202 6.4 19.3 0.00 0.43 0.00 55 1002.6
20260509204558 22 179 8.0 27.4 0.00 0.43 0.00 55 1002.9
20260509203057 21 233 9.7 25.7 0.00 0.43 0.00 56 1002.9
20260509201558 21 214 8.0 27.4 0.00 0.43 0.00 57 1003.2
20260509200057 21 169 8.0 25.7 0.00 0.43 0.00 56 1003.4
20260509194558 21 281 4.8 17.7 0.00 0.43 0.00 57 1003.7
20260509193102 21 233 6.4 25.7 0.00 0.43 0.00 57 1003.8
20260509191554 21 257 6.4 19.3 0.00 0.43 0.00 59 1004.2
20260509190056 20 179 6.4 27.4 0.00 0.43 0.00 60 1004.6
20260509184554 20 231 8.0 24.1 0.00 0.43 0.00 61 1004.5
20260509183059 20 134 8.0 17.7 0.00 0.43 0.00 62 1004.7
20260509181555 20 199 9.7 25.7 0.00 0.43 0.00 60 1004.6
20260509180057 20 292 9.7 24.1 0.00 0.43 0.00 60 1004.5
20260509174555 20 231 8.0 20.9 0.00 0.43 0.00 62 1004.5
20260509173118 19 120 6.4 27.4 0.00 0.43 0.00 65 1004.9
20260509171556 19 209 4.8 19.3 0.00 0.43 0.00 64 1004.8
20260509170112 19 176 3.2 14.5 0.00 0.43 0.00 64 1004.8
20260509164602 18 187 3.2 17.7 0.00 0.43 0.00 65 1004.8
20260509163053 18 241 4.8 14.5 0.00 0.43 0.00 68 1004.7
20260509161556 17 182 3.2 8.0 0.00 0.43 0.00 70 1005.1
20260509160059 16 166 1.6 19.3 0.00 0.43 0.00 74 1005.4
20260509154555 16 219 3.2 11.3 0.00 0.43 0.00 75 1005.6
20260509153054 16 255 3.2 17.7 0.00 0.43 0.00 74 1005.7
20260509151616 17 203 3.2 17.7 0.00 0.43 0.00 75 1005.5
20260509150055 16 236 3.2 12.9 0.00 0.43 0.00 78 1005.5
20260509144558 15 262 1.6 9.7 0.00 0.43 0.00 79 1005.5
20260509143105 15 249 1.6 6.4 0.00 0.43 0.00 83 1005.5
20260509141554 14 238 3.2 11.3 0.00 0.43 0.00 84 1005.5
20260509140053 13 206 1.6 11.3 0.00 0.43 0.00 85 1005.7
20260509134559 13 129 3.2 9.7 0.00 0.43 0.00 86 1005.5
20260509133058 13 243 4.8 12.9 0.00 0.43 0.00 86 1005.6
20260509131604 13 229 3.2 11.3 0.00 0.43 0.00 88 1005.5
20260509130126 12 141 1.6 9.7 0.00 0.43 0.00 89 1005.5
20260509124556 12 156 1.6 9.7 0.00 0.43 0.00 89 1005.6
20260509123120 12 233 3.2 11.3 0.00 0.43 0.00 89 1005.7
20260509121554 12 162 3.2 6.4 0.00 0.43 0.00 89 1005.8